Flag for Costa Rica Weather past 2 weeks in Alajuela, Costa Rica

Now
77 °F

Passing clouds.


Feels Like: 79 °F
Forecast: N/A
Wind: 21 mph from East

Location: Juan Santamaria

Current Time: Jan 28, 2015 at 4:53:02 PM

Latest Report: Jan 28, 2015 at 4:00 PM


Visibility: N/A

Pressure: 29.90 "Hg

Humidity: 47%

Dew point: 55 °F

Location of AlajuelaLocation

Historic Weather in Alajuela — Graph

°F

Alajuela temperature yesterday

Maximum temperature yesterday: 81 °F (at 12:00 PM)
Minimum temperature yesterday: 66 °F (at 12:00 AM)
Average temperature yesterday: 72 °F

Past Weeks' High & Low Weather Summary

 TemperatureHumidityPressure
High86 °F (Jan 15, 2:00 PM)88% (Jan 15, 7:00 PM)30.11 "Hg (Jan 15, 7:00 PM)
Low64 °F (Jan 23, 5:00 AM)28% (Jan 21, 12:00 PM)29.90 "Hg (Jan 28, 3:00 PM)
Average73 °F61%30.02 "Hg
* Reported Jan 13 4:00 PM — Jan 28 4:00 PM, Alajuela, Weather by CustomWeather, © 2014

Note: Actual official high and low records may vary slightly from our data, if they occured in-between our weather recording intervals... More about our weather records

Advertising

Alajuela weather history for previous 24 hours

 ConditionsComfort  
Time TempWeatherWind HumidityBarometerVisibility
4:00 PM
Jan 28
77 °FPassing clouds.21 mph47%29.90 "HgN/A
3:00 PM79 °FPassing clouds.21 mph48%29.90 "HgN/A
2:00 PM77 °FScattered clouds.21 mph51%29.91 "HgN/A
1:00 PM79 °FScattered clouds.20 mph48%29.95 "HgN/A
12:00 PM81 °FPassing clouds.18 mph45%29.96 "HgN/A
11:00 AM77 °FPassing clouds.22 mph54%29.98 "HgN/A
10:00 AM77 °FScattered clouds.18 mph51%30.01 "HgN/A
9:00 AM75 °FScattered clouds.20 mph54%30.01 "HgN/A
8:00 AM73 °FScattered clouds.12 mph57%30.01 "HgN/A
7:00 AM70 °FPassing clouds.12 mph64%29.98 "HgN/A
6:00 AM70 °FScattered clouds.7 mph69%29.98 "HgN/A
5:00 AM68 °FPassing clouds.18 mph73%29.97 "HgN/A
4:00 AM70 °FPassing clouds.18 mph73%29.96 "HgN/A
3:00 AM68 °FPassing clouds.14 mph78%29.96 "HgN/A
2:00 AM70 °FPassing clouds.7 mph73%29.97 "HgN/A
1:00 AM70 °FPassing clouds.12 mph73%29.99 "HgN/A
12:00 AM70 °FPassing clouds.16 mph73%30.00 "HgN/A
11:00 PM
Jan 27
68 °FPassing clouds.10 mph78%30.01 "HgN/A
10:00 PM68 °FPassing clouds.8 mph78%30.07 "HgN/A
9:00 PM70 °FPassing clouds.5 mph73%30.06 "HgN/A
8:00 PM70 °FPassing clouds.8 mph73%30.04 "HgN/A
7:00 PM70 °FPassing clouds.9 mph69%30.02 "HgN/A
6:00 PM70 °FPassing clouds.12 mph73%30.01 "HgN/A
5:00 PM73 °FScattered clouds.9 mph61%29.99 "HgN/A
4:00 PM75 °FPartly sunny.10 mph57%29.98 "HgN/A
Weather by CustomWeather, © 2014

See weather overviewHow to use our weather pages